Location: North Runcton
(52.7000°N, 0.4333°E)
Time: 22:46:29
(UTC+00:00)

Spot 1 - Pass Details

Date: 19 May 2025
Orbit: 568 x 753 km, 98.7° (Epoch: 12 June)

Event Time Altitude Azimuth Distance (km) Brightness Sun altitude
Rises 23:17:39 0° 18° (NNE) 2,854 8.6 -16.9°
Reaches altitude 10° 23:19:49 10° 23° (NNE) 1,969 7.5 -16.9°
Maximum altitude 23:24:01 56° 102° (ESE) 755 4.3 -17.0°
Enters shadow 23:25:46 33° 165° (SSE) 1,079 4.7 -17.0°
